Regional Weather Roundup
Issued by NWS State College, PA

Home | Current Version | Previous Version | Graphics & Text | Print | Product List | Glossary Off
Versions: 1 2 3 4 5 6 7 8 9 10 11 12 13 14 15 16 17 18 19 20 21 22 23 24 25 26 27 28 29 30 31 32 33 34 35 36 37 38 39 40 41 42 43 44 45 46 47 48 49 50

000
ASUS41 KCTP 020210
RWRCTP

REGIONAL WEATHER ROUNDUP
NATIONAL WEATHER SERVICE STATE COLLEGE PA
1000 PM EDT WED APR 01 2015

Note: "fair" indicates few or no clouds below 12,000 feet with no
significant weather and/or obstructions to visibility.

* = STATION THAT DOES NOT REPORT PRECIPITATION /E.G. RAIN...SNOW...ETC/
    THUNDER OR FOG.

PAZ002>004-007>009-013>016-020>023-029>032-020300-
WESTERN PENNSYLVANIA

CITY           SKY/WX    TMP DP  RH WIND       PRES   REMARKS
ERIE           CLEAR     38  30  73 CALM      30.09F
MEADVILLE      CLEAR     44  30  57 S3        30.09S
FRANKLIN*      CLEAR     45  27  49 S7        30.13S
NEW CASTLE     FAIR      47  30  51 CALM      30.13R
BEAVER COUNTY  NOT AVBL
BUTLER*        CLEAR     43  27  52 S3        30.15S
PITTSBURGH INT PTCLDY    49  26  41 S3        30.14R
PITTSBURGH     CLEAR     51  21  30 S6        30.14R
INDIANA*       CLEAR     37  28  70 CALM      30.18S
LATROBE        CLEAR     41  27  56 CALM      30.17R
WASHINGTON CO* CLEAR     37  27  65 CALM      30.17R
$$

PAZ004>006-010>012-017>019-024>028-033>037-041-042-045-046-049>053-020300-
CENTRAL PENNSYLVANIA

CITY           SKY/WX    TMP DP  RH WIND       PRES   REMARKS
BRADFORD       CLEAR     29  26  89 SE3       30.10F FOG
DUBOIS         CLEAR     41  29  62 SE7       30.12R
CLEARFIELD     CLEAR     35  29  78 N7        30.16R
JOHNSTOWN      CLEAR     44  23  43 S7        30.13S
ALTOONA        CLEAR     40  25  55 CALM      30.16R
STATE COLLEGE  NOT AVBL
WILLIAMSPORT   CLEAR     40  29  64 CALM      30.18R
SELINSGROVE    CLEAR     34  30  85 NW5       30.19S
FT INDIANTOWN  CLEAR     38  28  66 CALM      30.20S
CAPITAL CITY   CLEAR     39  29  67 CALM      30.20S
HARRISBURG     CLEAR     43  29  57 CALM      30.20R
YORK           CLEAR     34  26  72 CALM      30.20S
$$

PAZ038>040-043-044-047-048-054-055-060>062-067>071-020300-
EASTERN PENNSYLVANIA

CITY           SKY/WX    TMP DP  RH WIND       PRES   REMARKS
SCRANTON       CLEAR     38  19  46 E7        30.16R
MOUNT POCONO   CLEAR     29  20  69 CALM      30.14S
ALLENTOWN      CLEAR     39  22  50 E3        30.19R
QUAKERTOWN*    CLEAR     36  25  64 CALM      30.20S
READING        CLEAR     42  25  50 W6        30.19S
LANCASTER      CLEAR     39  28  64 CALM      30.20S
COATESVILLE    FAIR      41  27  56 S5        30.21S
POTTSTOWN      CLEAR     36  23  59 CALM      30.22R
BLUE BELL      CLEAR     37  28  70 CALM      30.21R
DOYLESTOWN     CLEAR     41  23  48 CALM      30.19S
WILLOW GROVE   NOT AVBL
NORTH PHILA    CLEAR     47  21  35 NW5       30.23R
PHILADELPHIA   CLEAR     49  20  31 N3        30.22S
$$



USA.gov is the U.S. government's official web portal to all federal, state and local government web resources and services.